Back to catalog

BREEZE-M DEB

LostHEO
NORAD 34248·DEBRIS·🇷🇺 Russia

Launched Feb 28, 2006 from Baikonur Cosmodrome

Loading…

Next Passes (next 24 hours)

TLE

StaleSource: Space-Track

Epoch: Jun 27, 2026, 10:21 UTC

1 34248U 06006BP  26178.43184956  .00010417  00000-0  53283-2 0  9993
2 34248  51.6795 194.7618 4633339 168.5352 207.5176  6.11236934 44688

Track BREEZE-M DEB in real time with AllMySat

Download on the App Store